User: anonymous   Login
Location: Champs
(48.8539°N, 2.6040°E)
Time: 16:39:58
(UTC+00:00)
Language:

Cosmos 1455 - Orbit

View from above orbital plane
View from above orbital plane
View from above satellite
View from above satellite

Ground track
Ground track

The orbit data is extracted from the following two-line orbital elements,

1 14032U 83037A   22023.03288413  .00002433  00000-0  11289-3 0  9995
2 14032  82.5133 224.8094 0016150 186.4471 173.6559 15.19464601116389
Epoch (UTC): 23 January 2022 00:47:21
Eccentricity: 0.0016150
inclination: 82.5133°
perigee height: 496 km
apogee height: 518 km
right ascension of ascending node: 224.8094°
argument of perigee: 186.4471°
revolutions per day: 15.19464601
mean anomaly at epoch: 173.6559°
orbit number at epoch: 11638

The dashed part of the orbit path shows where the satellite is in the earth's shadow,  

DLR